Temperature
14 13 13 13 13 13 13 13 13 13 13 13 13 13 13 13 12 12 13 13 13 13 13 13 13 13 13 13 13 13 13 13 14 14 14 14 14 14 15 15 15 15 14
13 13 12 12 12 12 12 12 12 12 12 12 12 12 12 12 12 12 12 12 12 12 12 12 12 12 12 12 13 13 13 13 13 13 14 14 14 14 14 15 14 14 14
12 12 12 12 11 11 11 11 11 12 12 12 12 11 11 11 12 12 12 12 12 12 11 12 12 12 12 12 12 12 13 13 13 13 13 13 13 13 14 14 14 14 14
12 12 11 11 11 11 11 11 11 12 12 12 11 11 11 11 11 11 11 11 11 11 11 11 11 11 11 11 12 12 12 12 13 13 13 13 13 13 13 13 13 13 13
12 12 11 11 11 11 10 11 11 11 11 11 11 11 11 11 11 11 11 11 11 11 11 11 11 12 12 12 12 12 12 12 13 13 13 13 12 12 12 12 12 12 12
12 11 11 11 11 11 11 11 11 11 11 11 11 11 11 11 11 11 11 11 11 11 11 11 11 11 11 12 12 12 12 12 12 12 13 12 12 12 12 12 12 12 11
12 12 12 11 11 11 11 11 11 11 11 11 11 11 12 11 11 11 11 11 11 11 11 11 11 11 11 11 11 11 11 12 12 11 11 11 11 11 11 12 11 11 11
12 12 12 12 11 11 11 11 11 11 11 11 11 11 12 11 11 11 11 11 11 11 10 10 10 11 11 11 11 11 11 11 11 11 11 11 11 12 12 12 12 12 12
12 12 12 12 11 11 11 11 11 11 11 11 11 11 11 11 11 11 11 10 10 10 10 10 10 10 11 10 10 10 10 10 11 11 11 11 11 11 12 12 12 13 12
11 11 12 12 11 11 11 11 11 11 11 11 11 11 11 11 11 11 11 11 10 10 10 10 10 10 10 10 10 10 10 10 10 11 10 10 10 10 11 11 11 12 12
11 11 11 11 11 11 11 11 11 11 11 11 11 11 11 11 11 10 10 10 10 10 10 10 9 9 9 9 9 9 10 10 10 11 11 11 11 10 10 10 10 10 10
11 11 11 11 11 11 11 11 11 10 10 10 10 10 10 10 10 10 10 10 10 9 10 10 9 9 9 9 9 9 9 10 10 10 10 10 10 10 9 9 9 9 9
11 11 11 11 11 11 10 10 10 10 10 10 10 10 10 10 10 9 9 9 9 9 9 9 9 8 8 8 8 8 9 9 9 10 9 9 9 9 9 9 9 9 9
11 10 10 10 10 10 10 10 10 10 11 10 10 10 10 9 9 9 9 9 9 9 8 8 8 8 8 8 8 9 8 8 8 8 8 9 9 9 9 9 9 10 10
10 10 10 10 11 10 10 10 10 10 11 10 10 10 10 9 9 9 9 9 9 9 9 9 9 9 9 9 9 8 8 8 8 7 7 8 8 8 8 8 8 9 9
10 10 11 11 10 10 10 9 10 10 10 10 9 9 9 9 9 9 9 9 9 9 9 10 10 10 10 9 9 9 8 7 7 7 7 7 7 7 7 8 8 8 8
10 10 11 11 10 10 10 10 9 9 9 9 9 9 9 9 9 9 9 9 9 9 9 10 9 9 9 9 9 8 8 7 6 7 6 6 6 7 7 7 7 7 7
10 10 10 10 10 10 10 10 10 10 9 9 9 9 8 8 8 9 8 8 9 9 10 10 9 9 9 9 8 8 8 7 7 6 6 6 6 6 6 6 7 6 6
10 10 10 10 10 10 10 10 10 10 10 10 9 9 9 8 8 8 9 9 10 10 10 9 9 9 9 8 8 7 7 7 6 6 6 5 6 6 6 6 6 5 6
10 10 10 10 10 10 10 10 10 10 10 10 10 9 9 8 8 9 9 9 10 10 10 9 9 9 8 8 8 8 8 7 6 6 6 5 5 5 5 5 6 6 6
11 10 9 9 10 10 10 10 10 10 10 10 10 10 9 9 10 10 10 9 10 10 10 9 9 9 8 8 8 8 7 7 6 6 6 5 5 5 5 5 5 5 5
11 10 9 10 10 10 10 10 10 10 10 11 11 10 9 10 10 11 10 10 10 10 10 9 10 9 9 9 8 8 7 7 6 6 5 5 5 4 4 5 5 5 5
11 11 10 10 10 10 10 10 11 11 11 11 11 11 10 10 10 10 10 10 10 10 10 10 9 9 9 9 8 8 7 7 6 6 5 5 4 4 4 4 4 4 4
11 11 11 10 10 10 10 10 11 11 11 11 11 11 11 10 10 10 10 10 10 10 10 10 10 10 9 8 8 8 7 7 6 5 4 4 4 4 4 4 4 3 3
12 11 11 11 10 11 10 11 11 11 11 11 11 11 11 11 11 10 10 10 10 10 10 10 10 9 9 8 8 7 7 6 6 5 4 4 4 3 3 3 3 3 3
12 12 12 11 11 11 11 11 11 11 11 11 11 11 11 11 11 11 11 11 10 10 10 10 10 9 9 8 8 7 6 6 5 5 4 4 3 3 3 3 3 3 3
Wind_Speed
6 5 2 1 1 1 2 4 6 6 6 6 6 6 5 5 5 4 3 4 2 2 2 2 3 4 4 3 4 4 4 5 7 7 5 6 6 7 5 5 5 5 5
6 5 4 4 2 1 1 2 4 6 6 5 5 5 5 5 4 5 4 4 5 5 4 4 4 3 4 5 5 5 5 5 7 8 7 6 6 6 6 6 5 5 4
5 6 5 4 3 2 1 1 3 5 6 6 5 6 6 6 6 6 7 7 7 7 6 6 5 5 6 6 6 7 6 5 5 5 6 5 5 7 8 7 6 5 4
2 4 4 4 2 1 1 1 3 5 6 7 7 7 7 7 7 8 9 8 8 8 8 7 7 7 7 6 5 6 7 6 5 5 6 6 7 9 9 9 8 5 3
2 4 5 4 4 3 3 4 5 6 8 8 9 9 9 8 8 9 10 10 10 11 10 10 9 8 8 7 7 8 8 7 7 8 8 9 10 10 10 9 9 8 3
4 5 7 8 7 7 6 6 7 7 8 9 10 10 10 9 10 9 9 11 11 11 10 9 9 9 7 7 7 8 9 9 10 9 10 10 10 10 9 8 8 7 5
3 5 8 11 11 10 9 8 8 9 9 10 10 11 11 10 10 10 8 10 11 10 9 8 9 10 9 8 6 6 9 7 5 9 11 11 11 10 10 10 8 6 5
3 4 6 10 13 12 9 8 8 8 9 9 10 11 11 9 8 9 6 10 10 9 8 8 9 9 10 9 8 9 9 10 9 9 9 9 10 10 10 8 5 1 2
4 4 6 9 12 13 11 10 9 8 9 9 10 11 11 9 6 4 2 8 7 7 7 7 8 9 12 13 7 7 7 6 5 4 3 3 3 6 10 10 10 9 6
6 6 6 8 11 12 12 11 10 9 9 9 9 9 10 9 6 1 4 4 5 5 5 6 10 9 11 13 8 8 7 7 7 5 2 3 5 7 9 11 11 10 9
8 8 8 9 10 11 12 11 11 10 10 9 10 9 8 8 7 2 5 1 3 2 3 4 6 9 10 11 8 7 6 8 6 6 6 7 7 8 10 10 10 9 9
10 10 10 10 9 10 10 11 11 11 11 11 10 10 8 7 6 6 6 6 5 2 2 3 6 7 8 9 7 8 10 9 6 7 7 8 8 9 9 9 8 7 6
12 11 11 10 9 9 10 11 11 11 10 10 9 8 8 8 7 6 5 4 4 1 4 7 5 1 3 5 6 7 8 7 8 7 8 8 8 8 8 7 7 6 2
12 12 11 10 10 10 9 10 11 11 11 11 10 9 8 8 8 7 6 6 6 4 5 6 5 1 3 4 2 3 6 8 8 8 8 8 8 8 8 8 9 8 7
13 12 12 11 10 9 9 7 9 9 9 9 9 8 8 8 6 7 2 3 3 3 3 5 6 5 4 4 5 5 7 7 7 8 8 9 8 8 8 8 8 8 7
13 12 11 10 10 10 9 8 6 4 8 7 6 6 5 9 14 10 7 6 4 2 3 5 5 4 4 4 5 5 6 7 8 8 8 8 8 8 8 8 8 8 8
13 12 11 10 10 10 10 11 10 6 6 7 7 5 9 15 13 10 7 5 3 3 4 5 4 4 3 4 4 5 6 6 6 7 7 8 8 7 7 8 8 9 8
15 13 11 10 10 11 11 11 11 13 13 10 8 9 13 14 12 10 8 7 7 5 5 5 4 4 2 2 3 4 5 5 6 6 7 7 7 7 7 8 7 9 9
15 13 12 11 11 11 11 11 12 13 12 12 12 11 11 11 10 8 8 7 6 7 6 5 4 3 2 1 1 2 3 4 5 6 6 6 7 6 7 7 7 6 7
15 13 12 12 12 12 12 12 12 13 12 12 13 14 13 11 10 10 9 8 6 6 6 6 5 4 3 3 3 3 3 2 3 4 5 5 6 6 6 7 7 8 7
15 15 14 13 13 13 13 13 13 13 13 13 13 14 16 14 12 12 11 9 8 7 7 6 6 6 6 5 5 5 4 4 3 3 4 5 5 6 6 7 7 7 8
15 15 15 15 14 14 14 14 14 14 15 15 13 14 15 13 12 11 11 10 10 8 8 7 7 6 6 6 6 6 6 5 4 3 3 4 4 5 6 7 7 8 8
16 16 16 16 15 15 15 15 15 15 15 16 15 15 15 14 12 11 11 11 11 10 9 8 8 8 7 7 7 7 7 5 4 3 4 4 4 4 5 5 6 7 7
18 18 18 17 16 16 17 16 16 16 16 16 15 15 14 15 14 14 13 12 12 11 10 10 10 11 10 8 8 9 8 5 4 4 4 5 5 4 4 4 5 6 7
18 18 18 17 17 17 17 17 17 16 16 15 15 14 14 14 14 14 14 13 14 13 13 12 10 11 13 13 12 9 10 11 6 4 5 5 5 4 5 5 5 6 7
19 19 18 17 17 17 17 18 18 17 17 16 15 14 14 14 14 14 14 14 13 13 13 12 13 14 14 14 14 13 19 17 14 9 6 5 5 5 5 5 5 6 7
Wind_Direction
349 341 317 320 294 198 161 154 147 145 155 163 166 169 170 169 175 193 190 177 172 123 84 57 40 11 351 339 338 326 310 301 293 298 297 309 308 311 311 294 276 257 240
30 39 42 32 11 14 45 161 159 152 156 157 159 161 164 161 164 168 154 129 103 87 69 57 42 39 27 12 352 351 337 316 302 309 315 319 317 321 315 298 280 260 250
42 49 64 62 35 359 286 207 156 141 139 140 148 148 143 141 139 128 109 95 86 79 73 66 54 44 31 25 4 359 345 340 336 322 335 345 345 351 340 331 306 277 252
74 76 85 104 122 226 245 152 133 131 131 132 133 130 128 126 120 110 99 91 88 84 77 68 56 44 29 12 12 12 4 4 25 23 25 23 19 11 9 359 348 322 279
193 156 152 157 163 176 171 149 139 136 130 128 126 121 118 116 110 107 105 101 96 91 83 73 63 57 43 21 22 19 19 22 37 41 40 36 28 19 15 5 358 348 356
226 196 179 175 176 176 166 158 148 137 128 127 123 115 108 100 84 81 100 101 96 91 86 82 81 66 83 80 57 44 28 29 30 29 40 34 27 17 9 12 11 12 10
234 201 184 179 176 169 164 162 151 143 134 130 125 115 108 105 97 86 83 101 95 85 77 64 60 55 36 57 97 126 74 54 22 27 43 28 23 12 360 11 25 28 22
223 188 169 170 164 158 161 159 150 144 139 137 132 124 120 118 108 105 104 104 98 90 80 71 64 54 30 12 55 63 62 54 42 42 42 34 30 7 353 354 354 18 99
210 182 161 158 158 160 163 159 151 145 140 142 138 136 132 132 137 144 183 119 110 97 82 62 54 57 17 353 39 52 51 54 102 95 17 332 317 349 357 4 3 1 16
205 185 170 160 159 161 162 159 152 147 143 142 137 141 141 142 146 158 277 141 124 124 112 101 68 42 18 4 27 36 34 20 10 24 29 3 16 29 24 16 7 4 3
197 185 176 164 161 161 160 158 155 154 145 139 134 132 134 135 143 110 335 119 129 130 111 96 72 41 27 14 16 37 359 317 345 4 14 15 16 17 18 22 15 10 8
193 186 175 166 163 160 161 159 159 154 149 145 139 134 128 127 114 107 71 51 7 103 73 70 77 54 44 33 38 8 330 328 11 13 13 12 11 9 9 9 14 14 16
192 183 173 167 164 164 166 162 163 167 167 160 156 155 149 138 124 117 110 90 9 47 78 64 65 108 197 106 59 344 348 17 14 10 7 4 2 3 350 352 355 347 328
190 180 173 172 173 173 177 175 177 179 178 173 173 167 157 157 160 163 162 163 176 169 135 135 158 172 131 103 148 31 40 30 5 4 358 354 351 351 356 358 350 348 350
190 183 182 183 181 176 183 182 190 187 183 181 176 166 169 178 131 71 113 130 111 98 156 165 159 150 128 91 67 45 30 23 15 11 3 357 354 353 355 359 352 344 352
192 189 191 190 184 186 177 167 66 93 121 121 135 168 148 123 125 118 103 93 80 356 249 152 137 123 93 66 45 42 42 29 15 12 9 2 357 355 356 357 356 354 353
201 195 197 194 189 194 189 183 172 136 121 140 157 150 135 141 147 154 154 146 152 246 203 145 136 120 97 72 47 36 35 37 13 10 11 4 357 356 0 358 4 358 351
204 197 200 197 197 197 194 191 185 176 174 175 173 154 143 153 161 170 172 181 177 206 188 156 152 141 116 62 39 29 23 22 14 7 12 5 360 359 2 355 6 7 346
204 200 198 202 200 199 195 192 188 184 179 174 169 164 160 161 170 181 196 220 188 180 179 175 178 178 173 170 25 356 0 9 10 347 8 4 358 358 2 354 357 4 332
203 196 191 200 201 199 196 193 188 185 184 184 182 176 172 181 189 186 202 215 206 188 187 190 194 203 216 238 247 271 297 324 334 336 2 354 352 351 352 346 348 345 345
197 188 187 203 203 198 195 195 192 190 192 193 191 177 173 191 196 191 191 197 205 200 195 201 202 207 219 232 246 249 262 289 308 330 337 339 342 341 337 340 340 338 340
195 188 191 202 201 198 196 196 196 195 195 196 191 174 172 202 205 202 202 199 204 209 206 210 223 224 228 233 238 244 251 256 272 295 307 312 315 322 330 336 338 336 334
194 190 189 198 200 193 196 198 197 196 195 195 195 188 187 207 218 218 215 213 211 213 214 216 231 240 235 234 241 248 251 246 245 272 294 293 294 305 315 327 327 326 333
194 193 191 194 197 194 197 200 198 198 198 198 200 201 197 201 215 221 222 221 219 220 222 224 232 238 237 235 236 234 231 218 216 225 247 284 284 284 295 308 316 331 328
196 194 194 194 196 197 197 200 201 201 203 204 205 208 211 210 212 217 218 220 221 223 227 231 234 236 236 231 229 223 150 142 174 231 215 243 258 270 283 295 310 318 320
199 196 196 196 196 199 199 201 203 204 206 209 210 212 215 216 216 216 215 215 218 221 228 233 235 235 232 225 217 178 155 162 172 195 235 239 238 250 267 284 302 306 314
Height
1468 1466 1466 1466 1466 1466 1467 1469 1470 1471 1474 1476 1478 1480 1482 1483 1484 1485 1487 1486 1486 1486 1486 1485 1484 1484 1484 1484 1482 1481 1480 1478 1476 1474 1472 1470 1468 1467 1465 1464 1463 1462 1461
1466 1463 1463 1464 1465 1466 1467 1469 1470 1471 1474 1476 1478 1480 1481 1483 1483 1484 1485 1485 1485 1485 1485 1484 1484 1484 1483 1483 1481 1480 1479 1476 1474 1471 1470 1468 1466 1464 1462 1460 1459 1458 1457
1465 1463 1462 1463 1465 1466 1468 1470 1471 1473 1474 1476 1478 1480 1481 1482 1483 1484 1484 1484 1484 1484 1484 1484 1484 1484 1483 1482 1481 1480 1478 1476 1472 1470 1468 1467 1465 1462 1460 1458 1456 1454 1453
1465 1464 1463 1464 1467 1469 1470 1471 1473 1474 1475 1477 1479 1480 1481 1483 1484 1484 1484 1484 1484 1484 1484 1485 1485 1485 1483 1482 1481 1480 1477 1475 1472 1470 1468 1467 1465 1462 1459 1456 1453 1452 1450
1466 1465 1465 1465 1467 1470 1472 1473 1475 1476 1477 1478 1480 1481 1483 1484 1484 1484 1485 1485 1485 1486 1486 1486 1486 1485 1483 1482 1481 1480 1478 1475 1473 1472 1470 1469 1467 1463 1460 1456 1453 1450 1448
1465 1464 1464 1465 1467 1470 1473 1475 1476 1477 1478 1480 1482 1483 1484 1485 1485 1485 1486 1487 1488 1488 1489 1489 1488 1486 1485 1484 1482 1480 1479 1477 1476 1474 1473 1472 1470 1467 1462 1458 1455 1451 1449
1463 1463 1463 1464 1466 1470 1473 1475 1477 1479 1480 1482 1483 1485 1485 1486 1487 1488 1489 1489 1490 1490 1491 1491 1491 1489 1487 1486 1484 1482 1481 1479 1477 1477 1476 1474 1472 1469 1464 1461 1457 1454 1451
1462 1462 1462 1463 1466 1469 1472 1475 1477 1479 1481 1483 1485 1486 1487 1488 1490 1491 1491 1492 1492 1492 1492 1492 1491 1490 1488 1487 1487 1485 1483 1481 1480 1478 1478 1475 1473 1469 1466 1463 1460 1456 1454
1461 1461 1461 1462 1464 1467 1471 1473 1476 1479 1481 1484 1485 1487 1488 1489 1491 1492 1493 1494 1493 1493 1493 1492 1492 1490 1489 1488 1488 1486 1485 1484 1482 1480 1478 1476 1474 1470 1467 1465 1462 1459 1457
1459 1459 1460 1461 1463 1466 1469 1472 1475 1478 1481 1483 1486 1488 1489 1490 1491 1492 1493 1495 1494 1494 1493 1492 1491 1491 1490 1489 1488 1487 1485 1484 1483 1482 1480 1477 1475 1472 1468 1465 1463 1461 1459
1456 1457 1458 1460 1462 1464 1467 1470 1473 1477 1480 1482 1485 1487 1488 1489 1490 1492 1492 1494 1494 1494 1494 1493 1492 1490 1489 1488 1487 1486 1485 1484 1484 1482 1480 1478 1475 1473 1470 1467 1464 1463 1461
1453 1455 1456 1458 1461 1463 1466 1468 1471 1475 1478 1481 1483 1486 1487 1488 1489 1491 1491 1492 1492 1493 1493 1493 1491 1490 1489 1489 1488 1487 1486 1485 1484 1482 1480 1477 1475 1473 1470 1468 1465 1463 1461
1450 1452 1454 1456 1459 1461 1464 1467 1470 1473 1477 1479 1482 1484 1486 1487 1488 1489 1490 1490 1490 1491 1491 1490 1490 1489 1489 1489 1488 1487 1487 1486 1484 1482 1480 1478 1476 1473 1470 1468 1466 1464 1461
1447 1449 1451 1454 1457 1459 1462 1465 1468 1471 1474 1477 1480 1482 1484 1485 1486 1487 1488 1488 1489 1490 1490 1489 1489 1489 1490 1489 1489 1489 1488 1486 1484 1482 1480 1478 1475 1473 1471 1468 1466 1464 1462
1444 1446 1449 1452 1455 1456 1459 1462 1465 1468 1472 1475 1477 1479 1481 1484 1485 1486 1488 1488 1489 1489 1489 1490 1490 1491 1491 1491 1490 1489 1488 1486 1484 1482 1480 1478 1475 1473 1471 1469 1467 1465 1463
1441 1443 1446 1449 1451 1454 1456 1459 1462 1465 1469 1472 1474 1477 1480 1481 1482 1484 1485 1486 1486 1487 1488 1490 1490 1490 1490 1490 1490 1489 1488 1486 1485 1483 1481 1478 1476 1474 1472 1470 1468 1466 1464
1437 1439 1443 1445 1448 1451 1453 1456 1458 1462 1465 1468 1471 1474 1477 1478 1480 1482 1483 1484 1485 1486 1488 1489 1490 1490 1490 1490 1490 1489 1489 1487 1486 1484 1482 1480 1477 1475 1473 1471 1469 1467 1465
1432 1435 1438 1441 1444 1447 1449 1452 1455 1457 1460 1464 1467 1470 1473 1476 1478 1480 1481 1483 1484 1485 1487 1488 1489 1490 1490 1490 1490 1490 1489 1488 1487 1485 1483 1481 1478 1476 1474 1472 1470 1468 1466
1426 1430 1432 1436 1439 1442 1445 1448 1451 1454 1457 1461 1464 1467 1470 1473 1475 1477 1479 1481 1483 1484 1485 1487 1488 1489 1489 1489 1489 1489 1489 1488 1487 1485 1483 1481 1479 1477 1475 1473 1471 1469 1467
1420 1423 1427 1430 1434 1437 1440 1443 1446 1450 1453 1457 1461 1464 1466 1470 1473 1475 1477 1479 1481 1482 1483 1484 1486 1487 1487 1488 1488 1488 1488 1487 1486 1484 1483 1481 1479 1477 1475 1473 1472 1470 1467
1413 1416 1420 1424 1428 1431 1435 1438 1442 1446 1449 1453 1457 1460 1463 1467 1470 1473 1475 1476 1478 1479 1481 1482 1483 1484 1485 1485 1486 1485 1485 1485 1484 1483 1482 1480 1479 1477 1475 1473 1471 1469 1467
1406 1410 1413 1418 1422 1426 1430 1434 1437 1441 1445 1449 1453 1456 1459 1463 1466 1469 1471 1473 1474 1476 1477 1479 1480 1481 1482 1482 1482 1482 1482 1482 1482 1481 1480 1479 1477 1476 1474 1472 1471 1469 1467
1399 1403 1407 1412 1416 1420 1425 1428 1432 1436 1440 1444 1448 1451 1454 1458 1461 1464 1466 1468 1470 1472 1473 1475 1476 1477 1478 1478 1478 1478 1478 1478 1478 1478 1477 1476 1475 1474 1473 1471 1470 1468 1466
1393 1397 1401 1406 1410 1414 1419 1423 1427 1430 1434 1438 1442 1446 1449 1452 1456 1458 1460 1463 1465 1467 1469 1470 1471 1472 1473 1473 1473 1473 1474 1474 1474 1474 1474 1473 1472 1471 1470 1469 1468 1467 1465
1386 1390 1395 1399 1404 1408 1413 1417 1421 1425 1429 1432 1436 1440 1443 1446 1449 1452 1454 1457 1459 1461 1463 1465 1466 1466 1467 1468 1468 1469 1468 1468 1469 1470 1470 1469 1469 1469 1468 1467 1466 1465 1464
1380 1384 1388 1393 1397 1402 1406 1411 1415 1419 1423 1427 1430 1433 1437 1440 1442 1445 1448 1451 1453 1455 1457 1458 1459 1460 1460 1461 1462 1462 1462 1463 1464 1464 1466 1466 1466 1465 1465 1464 1463 1462 1461